Find Prospero

NORAD ID: 5580 Int'l Des: 1971-093 Owner: RAE Country: UK operational
LEOPOLAR

当前视图

正在加载3D地球...

关于 Prospero

正在加载描述...

即将过境

Passes for default location (London). Set your location on the main map for personalized predictions.

高度历史

Loading altitude history...

两行轨道根数

1 5580U 71093A 26150.45149715 .00000816 00000-0 17383-3 0 9998
2 5580 82.0374 306.4005 0500197 278.0255 76.4464 14.01573386746043
Epoch: May 30, 2026 • Age: 14 hours

当前状态

高度 1129.8 km
速度 7.17 km/s
星下点 48.05°N, 54.57°E
类型 other

Most Searched